• In Portugal
  • List of Countries
  • For 7 days
  • Water Temperature
  • Satellite Maps
  • Weather Map
  • Weather Widgets
  • user-avatar
    Login

    Hourly Weather Vanadzor

    Today, 19 September, Tuesday

    Time Temperature Precipitation Wind Pressure Humidity
    00:00 +15°C° 0.4 mm 1 mps 639 mmHg 74%
    01:00 +15°C° 0.1 mm 1 mps 639 mmHg 74%
    02:00 +15°C° 0.1 mm 1 mps 639 mmHg 74%
    03:00 +15°C° 0 mm 1 mps 638 mmHg 75%
    04:00 +14°C° 0 mm 1 mps 638 mmHg 74%
    05:00 +14°C° 0 mm 1 mps 638 mmHg 74%
    06:00 +14°C° 0 mm 1 mps 638 mmHg 74%
    07:00 +16°C° 0 mm 1 mps 639 mmHg 63%
    08:00 +20°C° 0 mm 1 mps 640 mmHg 52%
    09:00 +23°C° 0 mm 1 mps 641 mmHg 39%
    10:00 +24°C° 0 mm 2 mps 641 mmHg 36%
    11:00 +25°C° 0 mm 2 mps 641 mmHg 33%
    12:00 +27°C° 0 mm 2 mps 641 mmHg 29%
    13:00 +27°C° 0 mm 2 mps 641 mmHg 29%
    14:00 +27°C° 0 mm 2 mps 641 mmHg 29%
    15:00 +27°C° 0 mm 2 mps 640 mmHg 28%
    16:00 +25°C° 0 mm 2 mps 640 mmHg 34%
    17:00 +23°C° 0 mm 1 mps 639 mmHg 40%
    18:00 +21°C° 0 mm 1 mps 639 mmHg 46%
    19:00 +20°C° 0 mm 1 mps 639 mmHg 50%
    20:00 +19°C° 0 mm 1 mps 639 mmHg 54%
    21:00 +18°C° 0 mm 1 mps 639 mmHg 57%
    22:00 +18°C° 0 mm 1 mps 639 mmHg 59%
    23:00 +16°C° 0 mm 1 mps 639 mmHg 62%

    Tomorrow, 20 September, Wednesday

    Time Temperature Precipitation Wind Pressure Humidity
    00:00 +16°C° 0 mm 1 mps 639 mmHg 64%
    01:00 +15°C° 0 mm 1 mps 639 mmHg 63%
    02:00 +15°C° 0 mm 1 mps 639 mmHg 63%
    03:00 +15°C° 0 mm 1 mps 639 mmHg 62%
    04:00 +14°C° 0 mm 1 mps 638 mmHg 63%
    05:00 +14°C° 0 mm 1 mps 638 mmHg 64%
    06:00 +14°C° 0 mm 1 mps 638 mmHg 64%
    07:00 +16°C° 0 mm 1 mps 639 mmHg 55%
    08:00 +20°C° 0 mm 1 mps 640 mmHg 45%
    09:00 +23°C° 0 mm 1 mps 640 mmHg 36%
    10:00 +24°C° 0 mm 2 mps 641 mmHg 33%
    11:00 +26°C° 0 mm 2 mps 641 mmHg 29%
    12:00 +27°C° 0 mm 2 mps 641 mmHg 26%
    13:00 +27°C° 0 mm 2 mps 641 mmHg 26%
    14:00 +27°C° 0 mm 2 mps 640 mmHg 26%
    15:00 +28°C° 0 mm 2 mps 640 mmHg 26%
    16:00 +25°C° 0 mm 2 mps 639 mmHg 33%
    17:00 +23°C° 0 mm 2 mps 639 mmHg 39%
    18:00 +21°C° 0 mm 1 mps 638 mmHg 46%
    19:00 +19°C° 0 mm 1 mps 638 mmHg 52%
    20:00 +17°C° 0 mm 2 mps 638 mmHg 58%
    21:00 +16°C° 0 mm 2 mps 638 mmHg 63%
    22:00 +16°C° 0 mm 2 mps 638 mmHg 65%
    23:00 +16°C° 0 mm 2 mps 638 mmHg 67%

    Day after tomorrow, 21 September, Thursday

    Time Temperature Precipitation Wind Pressure Humidity
    00:00 +15°C° 0 mm 2 mps 638 mmHg 68%
    01:00 +15°C° 0 mm 1 mps 638 mmHg 69%
    02:00 +15°C° 0 mm 1 mps 638 mmHg 70%
    03:00 +14°C° 0 mm 1 mps 638 mmHg 70%
    04:00 +14°C° 0 mm 1 mps 637 mmHg 69%
    05:00 +14°C° 0 mm 1 mps 637 mmHg 68%
    06:00 +14°C° 0 mm 1 mps 637 mmHg 67%
    07:00 +18°C° 0 mm 1 mps 638 mmHg 57%
    08:00 +21°C° 0 mm 1 mps 639 mmHg 46%
    09:00 +24°C° 0 mm 1 mps 640 mmHg 35%
    10:00 +25°C° 0 mm 2 mps 640 mmHg 32%
    11:00 +26°C° 0 mm 2 mps 640 mmHg 29%
    12:00 +27°C° 0 mm 2 mps 640 mmHg 27%
    13:00 +28°C° 0 mm 2 mps 639 mmHg 27%
    14:00 +28°C° 0 mm 2 mps 639 mmHg 28%
    15:00 +28°C° 0 mm 2 mps 639 mmHg 28%
    16:00 +26°C° 0 mm 2 mps 638 mmHg 36%
    17:00 +23°C° 0 mm 2 mps 637 mmHg 43%
    18:00 +21°C° 0 mm 1 mps 637 mmHg 50%
    19:00 +20°C° 0 mm 1 mps 637 mmHg 55%
    20:00 +18°C° 0 mm 2 mps 637 mmHg 60%
    21:00 +17°C° 0 mm 2 mps 637 mmHg 65%
    22:00 +17°C° 0 mm 2 mps 637 mmHg 68%
    23:00 +16°C° 0 mm 1 mps 637 mmHg 72%

    22 September, Friday

    Time Temperature Precipitation Wind Pressure Humidity
    00:00 +15°C° 0 mm 1 mps 637 mmHg 75%
    01:00 +15°C° 0 mm 1 mps 637 mmHg 77%
    02:00 +14°C° 0 mm 1 mps 636 mmHg 78%
    03:00 +14°C° 0 mm 2 mps 636 mmHg 80%
    04:00 +13°C° 0 mm 1 mps 636 mmHg 80%
    05:00 +13°C° 0 mm 1 mps 636 mmHg 79%
    06:00 +13°C° 0 mm 1 mps 636 mmHg 79%
    07:00 +16°C° 0 mm 1 mps 637 mmHg 67%
    08:00 +18°C° 0 mm 2 mps 638 mmHg 55%
    09:00 +21°C° 0 mm 2 mps 638 mmHg 43%
    10:00 +23°C° 0 mm 2 mps 638 mmHg 39%
    11:00 +25°C° 0 mm 2 mps 638 mmHg 35%
    12:00 +26°C° 0 mm 3 mps 638 mmHg 31%
    13:00 +26°C° 0 mm 3 mps 638 mmHg 30%
    14:00 +26°C° 0 mm 3 mps 638 mmHg 30%
    15:00 +26°C° 0 mm 3 mps 638 mmHg 30%
    16:00 +24°C° 0.1 mm 2 mps 637 mmHg 37%
    17:00 +21°C° 0.1 mm 2 mps 637 mmHg 44%
    18:00 +19°C° 0.1 mm 1 mps 636 mmHg 51%
    19:00 +17°C° 0.1 mm 2 mps 637 mmHg 55%
    20:00 +16°C° 0.1 mm 2 mps 637 mmHg 58%
    21:00 +15°C° 0.1 mm 2 mps 637 mmHg 62%
    22:00 +15°C° 0.1 mm 2 mps 637 mmHg 61%
    23:00 +15°C° 0.1 mm 2 mps 637 mmHg 60%

    23 September, Saturday

    Time Temperature Precipitation Wind Pressure Humidity
    00:00 +14°C° 0.1 mm 2 mps 637 mmHg 59%
    01:00 +14°C° 0.1 mm 2 mps 637 mmHg 60%
    02:00 +13°C° 0.1 mm 2 mps 637 mmHg 60%
    03:00 +13°C° 0.1 mm 2 mps 637 mmHg 60%
    04:00 +13°C° 0.1 mm 2 mps 637 mmHg 61%
    05:00 +12°C° 0.1 mm 2 mps 637 mmHg 61%
    06:00 +12°C° 0.1 mm 2 mps 637 mmHg 62%
    07:00 +15°C° 0.1 mm 2 mps 638 mmHg 55%
    08:00 +18°C° 0.1 mm 1 mps 639 mmHg 48%
    09:00 +21°C° 0.1 mm 1 mps 640 mmHg 41%
    10:00 +21°C° 0 mm 2 mps 640 mmHg 38%
    11:00 +23°C° 0 mm 2 mps 640 mmHg 36%
    12:00 +25°C° 0 mm 2 mps 640 mmHg 33%
    13:00 +25°C° 0.2 mm 2 mps 640 mmHg 33%
    14:00 +25°C° 0.2 mm 3 mps 640 mmHg 33%
    15:00 +25°C° 0.2 mm 3 mps 640 mmHg 33%
    16:00 +23°C° 0.2 mm 2 mps 639 mmHg 39%
    17:00 +20°C° 0.2 mm 2 mps 639 mmHg 45%
    18:00 +17°C° 0.2 mm 2 mps 638 mmHg 50%
    19:00 +16°C° 0.1 mm 2 mps 639 mmHg 53%
    20:00 +15°C° 0.1 mm 2 mps 639 mmHg 55%
    21:00 +14°C° 0.1 mm 2 mps 639 mmHg 57%
    22:00 +14°C° 0 mm 2 mps 639 mmHg 57%
    23:00 +14°C° 0 mm 2 mps 639 mmHg 58%

    24 September, Sunday

    Time Temperature Precipitation Wind Pressure Humidity
    00:00 +13°C° 0 mm 2 mps 639 mmHg 58%
    01:00 +13°C° 0.1 mm 2 mps 639 mmHg 59%
    02:00 +12°C° 0.1 mm 2 mps 639 mmHg 61%
    03:00 +12°C° 0.1 mm 2 mps 638 mmHg 62%
    04:00 +12°C° 0.1 mm 2 mps 638 mmHg 63%
    05:00 +12°C° 0.1 mm 2 mps 639 mmHg 63%
    06:00 +12°C° 0.1 mm 2 mps 639 mmHg 64%
    07:00 +14°C° 0 mm 1 mps 639 mmHg 56%
    08:00 +18°C° 0 mm 1 mps 640 mmHg 48%
    09:00 +21°C° 0 mm 1 mps 641 mmHg 40%
    10:00 +21°C° 0 mm 2 mps 641 mmHg 37%
    11:00 +23°C° 0 mm 2 mps 641 mmHg 35%
    12:00 +25°C° 0 mm 2 mps 641 mmHg 32%
    13:00 +25°C° 0.1 mm 2 mps 641 mmHg 32%
    14:00 +25°C° 0.1 mm 2 mps 641 mmHg 32%
    15:00 +25°C° 0.1 mm 3 mps 640 mmHg 32%
    16:00 +23°C° 0.1 mm 2 mps 640 mmHg 38%
    17:00 +19°C° 0.1 mm 2 mps 639 mmHg 44%
    18:00 +17°C° 0.1 mm 2 mps 639 mmHg 50%
    19:00 +16°C° 0.1 mm 2 mps 639 mmHg 53%
    20:00 +15°C° 0.1 mm 2 mps 639 mmHg 55%
    21:00 +14°C° 0.1 mm 2 mps 639 mmHg 58%
    22:00 +14°C° 0 mm 2 mps 639 mmHg 58%
    23:00 +13°C° 0 mm 2 mps 639 mmHg 58%
    Show more